Precipitable_Water
0.91 0.89 0.86 0.86 0.87 0.90 0.92 0.95 0.99 0.97 0.98 1.02 1.03 1.06 1.08 1.11 1.14 1.09 1.06 1.03 1.02 1.00 0.99 0.99 1.01 0.99 0.98 0.97 0.95 0.94 0.92 0.90 0.90 0.90 0.87 0.86 0.84 0.82 0.78 0.77 0.74 0.72
0.91 0.91 0.91 0.90 0.89 0.92 0.94 0.98 0.99 0.98 0.99 1.04 1.07 1.09 1.12 1.13 1.10 1.08 1.03 0.99 0.99 0.98 0.99 1.00 1.00 1.00 0.98 0.97 0.96 0.93 0.91 0.90 0.86 0.90 0.85 0.84 0.84 0.83 0.80 0.79 0.77 0.78
0.91 0.90 0.90 0.88 0.87 0.89 0.92 0.97 0.99 0.99 1.02 1.07 1.08 1.10 1.10 1.13 1.07 1.05 1.03 0.99 0.96 0.97 0.98 0.99 0.98 0.98 0.97 0.96 0.96 0.93 0.90 0.88 0.85 0.87 0.85 0.82 0.83 0.81 0.81 0.82 0.80 0.77
0.90 0.91 0.91 0.91 0.91 0.89 0.93 0.95 0.96 1.00 1.04 1.04 1.05 1.08 1.10 1.12 1.08 1.05 1.03 1.01 0.96 0.94 0.97 0.98 0.97 0.96 0.94 0.95 0.94 0.92 0.90 0.88 0.87 0.87 0.84 0.83 0.82 0.81 0.79 0.78 0.77 0.76
0.90 0.90 0.91 0.93 0.93 0.93 0.94 0.93 0.94 0.98 1.01 1.04 1.06 1.08 1.09 1.09 1.06 1.05 1.03 1.01 0.98 0.94 0.94 0.95 0.96 0.95 0.95 0.94 0.93 0.89 0.89 0.86 0.86 0.84 0.79 0.75 0.75 0.74 0.73 0.73 0.71 0.70
0.91 0.92 0.91 0.92 0.94 0.93 0.92 0.92 0.95 0.98 1.01 1.03 1.04 1.08 1.08 1.09 1.07 1.05 1.04 1.00 0.99 0.96 0.93 0.92 0.93 0.95 0.95 0.93 0.91 0.88 0.86 0.83 0.83 0.80 0.74 0.70 0.69 0.70 0.69 0.67 0.65 0.63
0.86 0.90 0.89 0.91 0.94 0.96 0.94 0.94 0.97 0.99 1.02 1.06 1.09 1.06 1.09 1.07 1.06 1.05 1.05 1.02 0.99 0.97 0.95 0.92 0.89 0.89 0.92 0.91 0.89 0.85 0.84 0.82 0.80 0.77 0.71 0.69 0.68 0.66 0.67 0.66 0.64 0.62
0.86 0.90 0.91 0.91 0.91 0.95 0.94 0.94 0.96 0.98 1.03 1.07 1.05 1.08 1.09 1.07 1.06 1.07 1.06 1.03 0.99 0.97 0.97 0.94 0.91 0.89 0.88 0.86 0.83 0.81 0.79 0.79 0.78 0.75 0.71 0.68 0.67 0.63 0.64 0.64 0.63 0.63
0.88 0.88 0.90 0.90 0.89 0.92 0.92 0.93 0.95 0.97 1.03 1.04 1.04 1.06 1.09 1.07 1.07 1.07 1.06 1.03 1.00 0.97 0.96 0.95 0.93 0.90 0.89 0.86 0.83 0.80 0.78 0.77 0.77 0.75 0.71 0.67 0.64 0.63 0.62 0.63 0.62 0.62
0.87 0.88 0.88 0.87 0.86 0.89 0.89 0.92 0.95 0.96 1.01 1.02 1.03 1.06 1.05 1.08 1.08 1.07 1.05 1.02 0.99 0.97 0.96 0.94 0.93 0.92 0.89 0.87 0.84 0.81 0.78 0.76 0.75 0.74 0.71 0.68 0.65 0.63 0.63 0.62 0.61 0.60
0.84 0.87 0.86 0.85 0.85 0.87 0.88 0.93 0.95 0.96 0.98 0.98 0.99 1.01 1.05 1.07 1.07 1.07 1.04 1.01 0.97 0.95 0.94 0.94 0.94 0.93 0.90 0.88 0.85 0.83 0.80 0.77 0.75 0.74 0.72 0.69 0.68 0.67 0.65 0.63 0.62 0.61
0.80 0.83 0.83 0.84 0.86 0.87 0.90 0.94 0.96 0.97 0.97 0.98 0.99 0.97 1.00 1.04 1.04 1.04 1.02 1.00 0.99 0.97 0.96 0.95 0.95 0.94 0.91 0.88 0.85 0.83 0.81 0.79 0.77 0.74 0.72 0.68 0.67 0.67 0.66 0.64 0.62 0.62
0.77 0.79 0.81 0.82 0.85 0.88 0.92 0.95 0.97 0.98 0.98 0.97 1.00 0.99 0.98 0.98 1.01 1.01 1.02 1.00 1.00 1.00 0.98 0.97 0.96 0.95 0.93 0.90 0.87 0.85 0.82 0.79 0.76 0.74 0.70 0.68 0.67 0.67 0.66 0.64 0.64 0.64
0.74 0.78 0.80 0.82 0.85 0.89 0.91 0.94 0.96 0.98 1.00 1.01 1.03 1.01 1.00 0.99 0.98 0.98 1.00 1.00 1.00 1.00 1.00 0.99 0.98 0.96 0.94 0.92 0.90 0.87 0.85 0.82 0.79 0.74 0.70 0.67 0.67 0.67 0.66 0.65 0.64 0.65
0.75 0.77 0.80 0.81 0.83 0.84 0.87 0.90 0.92 0.95 0.97 1.00 1.01 1.02 1.03 1.03 1.03 1.01 0.99 0.98 0.99 1.00 0.99 0.99 0.97 0.95 0.94 0.94 0.92 0.90 0.87 0.84 0.81 0.76 0.71 0.68 0.66 0.67 0.67 0.67 0.67 0.68
0.78 0.77 0.77 0.78 0.79 0.79 0.80 0.85 0.89 0.92 0.94 0.95 0.97 1.00 1.02 1.04 1.02 1.01 0.99 0.97 0.96 0.97 0.97 0.96 0.94 0.95 0.96 0.96 0.96 0.92 0.88 0.86 0.83 0.80 0.76 0.72 0.69 0.68 0.69 0.70 0.71 0.72
0.81 0.79 0.78 0.76 0.76 0.78 0.79 0.80 0.82 0.86 0.89 0.92 0.95 0.99 1.00 1.03 1.02 1.00 0.98 0.98 0.97 0.96 0.95 0.95 0.95 0.95 0.96 0.95 0.94 0.93 0.90 0.86 0.84 0.82 0.80 0.77 0.74 0.71 0.71 0.73 0.76 0.79
0.80 0.81 0.80 0.77 0.77 0.76 0.77 0.79 0.81 0.82 0.83 0.86 0.91 0.94 0.98 1.02 1.00 0.99 0.98 0.98 0.98 0.97 0.96 0.96 0.96 0.98 0.98 0.97 0.95 0.93 0.91 0.88 0.86 0.84 0.82 0.79 0.77 0.75 0.75 0.76 0.78 0.79
0.79 0.79 0.79 0.79 0.79 0.78 0.79 0.80 0.81 0.81 0.81 0.83 0.85 0.91 0.97 0.98 0.98 0.99 0.98 0.99 0.97 0.95 0.94 0.95 0.97 1.00 1.00 0.99 0.99 0.96 0.93 0.90 0.88 0.87 0.84 0.81 0.79 0.78 0.78 0.79 0.80 0.80
0.76 0.76 0.76 0.77 0.79 0.81 0.82 0.81 0.81 0.79 0.81 0.83 0.85 0.89 0.92 0.93 0.97 0.97 0.98 0.97 0.97 0.95 0.95 0.96 0.97 0.99 1.00 1.00 0.99 0.98 0.96 0.93 0.91 0.89 0.88 0.85 0.82 0.81 0.83 0.84 0.83 0.83
0.88 0.87 0.84 0.82 0.79 0.78 0.78 0.80 0.80 0.81 0.82 0.84 0.86 0.86 0.87 0.89 0.92 0.94 0.95 0.96 0.96 0.96 0.96 0.95 0.97 0.99 1.00 1.00 1.00 0.99 0.98 0.95 0.93 0.91 0.90 0.88 0.86 0.84 0.86 0.86 0.86 0.88
1.03 1.01 1.00 1.00 0.98 0.96 0.89 0.81 0.77 0.78 0.80 0.85 0.88 0.89 0.91 0.93 0.94 0.95 0.94 0.94 0.96 0.97 0.96 0.95 0.98 1.00 1.00 1.01 1.02 1.00 0.98 0.96 0.95 0.93 0.91 0.91 0.91 0.88 0.87 0.88 0.88 0.91
1.13 1.11 1.08 1.08 1.08 1.07 1.04 1.00 0.93 0.86 0.82 0.85 0.85 0.86 0.88 0.89 0.89 0.89 0.91 0.92 0.94 0.96 0.97 0.97 0.98 1.00 1.00 1.00 1.01 1.00 0.98 0.96 0.96 0.96 0.96 0.95 0.94 0.91 0.92 0.92 0.91 0.94
1.24 1.22 1.18 1.15 1.14 1.11 1.08 1.09 1.11 1.10 1.05 1.03 0.93 0.87 0.85 0.86 0.88 0.89 0.91 0.92 0.92 0.92 0.94 0.93 0.95 0.98 1.00 1.02 1.02 1.01 1.00 0.97 0.97 0.96 0.95 0.95 0.92 0.92 0.93 0.92 0.94 0.97
1.34 1.31 1.26 1.23 1.21 1.19 1.19 1.18 1.19 1.20 1.24 1.27 1.22 1.16 1.09 1.06 1.02 0.98 0.95 0.95 0.94 0.93 0.94 0.93 0.93 0.97 1.00 1.02 1.03 1.02 1.01 0.99 0.98 0.98 0.95 0.94 0.95 0.95 0.94 0.93 0.94 0.98
1.39 1.36 1.33 1.31 1.30 1.31 1.33 1.33 1.34 1.33 1.32 1.34 1.36 1.35 1.27 1.20 1.16 1.13 1.10 1.08 1.07 1.03 0.99 0.98 0.95 0.96 0.99 1.01 1.02 1.03 1.04 1.03 1.00 1.01 0.97 0.96 0.96 0.96 0.92 0.93 0.94 0.93
Wind_Speed
7 7 7 8 8 8 8 8 8 8 7 7 6 5 4 4 4 5 5 5 5 6 6 6 6 7 7 8 8 9 9 9 9 9 9 9 10 10 11 11 11 11
7 7 7 8 8 8 8 8 8 8 7 6 5 4 3 3 3 3 4 4 5 5 5 5 6 6 6 7 7 8 8 9 9 9 9 9 9 9 10 10 10 10
8 8 8 8 8 9 9 8 8 7 6 5 4 4 3 3 3 3 3 3 3 4 4 4 5 5 5 5 6 7 7 8 8 8 8 8 8 8 8 8 8 8
9 8 8 9 9 9 9 9 8 7 6 5 4 4 3 3 2 2 1 2 2 3 3 3 4 4 4 4 5 5 5 6 6 6 7 7 7 7 7 7 6 6
10 9 9 9 10 10 10 9 9 8 7 6 5 4 4 3 3 2 1 0 1 2 2 2 3 3 3 3 4 4 4 4 5 5 6 6 6 6 6 5 5 5
11 10 10 10 11 11 11 10 10 9 8 7 6 5 5 4 4 3 2 2 1 1 1 2 2 2 2 3 3 3 3 4 4 5 5 5 5 5 5 4 3 3
12 12 11 11 12 12 12 12 11 10 9 8 7 7 6 6 6 5 4 3 3 3 2 2 2 2 2 3 3 3 4 4 4 5 5 5 5 5 5 5 4 4
14 13 13 13 13 13 14 13 13 12 11 10 9 8 8 8 7 7 6 5 5 4 4 4 4 4 4 4 4 4 4 5 5 5 6 6 6 6 6 6 6 6
15 14 14 14 14 15 15 15 14 14 13 12 11 10 10 9 9 8 8 7 7 6 6 5 5 5 5 5 5 5 6 6 6 7 7 7 7 7 7 7 7 7
16 16 16 15 15 16 16 16 16 15 15 14 13 12 12 11 11 10 10 9 9 8 8 7 7 7 7 7 7 7 7 7 7 8 8 8 8 8 8 8 8 9
17 17 17 17 17 17 17 17 17 17 16 16 15 14 13 13 13 12 12 11 11 10 9 9 9 9 8 8 8 8 9 9 9 9 9 9 9 9 9 9 9 10
18 18 18 18 18 18 18 18 18 18 18 17 17 16 15 15 15 14 14 13 13 12 11 11 11 10 10 10 10 10 10 10 10 10 10 10 10 10 10 10 11 11
19 19 19 19 19 19 19 19 19 19 19 18 18 18 17 17 17 16 16 15 15 14 13 13 12 12 12 12 12 12 11 11 11 11 11 11 11 11 11 12 12 13
18 19 19 19 19 19 19 20 20 20 20 19 19 19 19 19 19 18 18 17 17 16 15 15 14 14 14 14 13 13 13 13 13 13 13 13 13 13 13 13 14 14
18 19 19 20 20 20 20 20 21 21 21 20 20 20 20 20 20 20 19 19 19 18 17 17 17 16 16 15 15 15 15 14 14 14 14 14 14 14 14 14 14 14
19 19 19 20 20 21 21 21 21 21 21 21 22 22 21 21 21 21 21 21 20 20 19 19 19 18 18 17 17 16 16 16 16 16 16 16 16 15 15 15 15 15
19 19 20 20 21 21 22 22 22 22 22 22 22 22 22 22 22 22 22 22 22 22 21 21 20 20 20 19 19 18 18 18 18 17 17 17 17 17 17 17 17 17
20 20 20 20 21 22 22 22 23 23 23 23 24 24 23 23 23 23 23 23 23 23 23 23 22 22 21 21 21 20 20 20 20 19 19 19 19 19 18 18 18 18
21 21 21 21 21 22 23 23 23 24 24 25 25 25 25 25 25 25 25 25 25 25 25 25 24 24 24 23 23 22 22 22 22 21 21 21 21 20 20 19 19 19
23 23 23 22 23 23 23 24 24 25 26 26 26 26 26 27 27 27 27 27 27 27 27 27 26 26 26 25 25 25 24 24 23 23 23 22 22 22 21 20 20 20
23 23 23 24 24 24 24 25 25 26 27 27 27 28 28 29 29 29 29 29 29 29 28 28 28 28 28 28 27 27 26 26 26 25 24 24 23 23 22 21 21 20
23 23 24 24 24 24 25 26 27 27 28 28 28 29 29 30 30 30 31 31 31 31 30 30 30 30 30 30 29 29 28 28 27 27 26 25 25 24 23 22 22 21
24 25 25 25 25 25 26 26 27 28 28 29 29 30 30 31 31 31 32 32 32 32 32 32 32 32 32 32 32 31 30 30 29 28 27 26 26 25 24 24 23 23
26 26 27 27 27 27 27 28 28 28 28 29 29 30 31 32 32 32 33 33 33 33 34 34 34 34 34 34 34 33 32 32 31 29 28 28 27 27 26 25 25 24
28 28 29 29 29 29 30 29 29 28 28 29 29 30 31 32 32 33 33 34 34 35 35 35 35 35 35 36 36 35 35 33 32 31 29 29 28 28 27 27 27 26
29 29 30 30 31 31 31 31 30 30 30 30 31 31 31 32 32 33 33 34 35 35 36 36 36 36 36 37 37 37 36 35 33 32 31 30 30 30 29 28 27 27
Wind_Direction
165 164 164 162 161 159 156 153 148 145 145 141 135 126 116 104 96 88 76 67 60 56 54 53 51 50 51 54 56 58 59 61 63 63 63 64 63 64 68 70 73 76
176 174 173 172 170 169 166 162 158 157 157 154 148 141 130 120 108 94 78 67 59 54 52 49 48 49 49 51 53 55 58 61 62 62 62 63 62 64 68 71 73 77
186 186 186 184 182 180 176 173 170 170 171 169 165 157 148 138 127 110 87 70 57 48 46 44 45 47 48 49 51 53 55 59 61 60 58 57 57 59 65 69 72 74
196 197 197 195 193 190 187 185 184 184 185 187 185 178 170 161 157 145 103 66 51 41 37 37 39 44 47 47 48 49 50 52 54 52 47 46 47 50 57 63 67 68
205 206 205 204 203 201 200 198 198 198 200 202 202 200 195 194 200 203 200 5 17 19 19 22 26 32 37 38 39 40 39 37 33 31 30 30 30 34 40 49 55 57
214 214 212 211 211 210 211 210 209 209 211 214 216 217 216 217 223 227 233 253 280 306 327 346 359 9 12 13 16 14 11 8 6 9 11 9 8 9 12 17 25 26
222 222 220 219 219 219 219 218 218 218 219 224 228 230 231 230 232 237 242 252 264 275 285 295 308 322 330 334 339 341 340 342 343 347 349 348 348 348 347 346 346 347
228 228 228 226 225 225 226 224 224 223 224 229 235 239 241 239 238 241 246 254 262 269 275 279 284 292 299 305 311 315 318 322 324 328 330 331 331 332 331 329 329 331
232 233 233 232 231 230 230 229 228 228 229 234 239 243 245 243 243 245 249 254 261 267 272 274 277 281 285 290 295 300 304 308 311 315 318 319 319 319 318 318 319 322
236 236 236 236 235 234 233 232 233 233 235 239 243 245 245 246 247 249 252 255 259 263 268 272 274 277 280 283 287 291 296 300 303 307 309 310 311 309 308 308 309 312
238 238 239 238 238 237 236 236 237 238 240 242 245 246 246 247 249 251 254 256 258 261 265 269 272 274 276 280 283 287 291 295 298 301 303 304 305 305 305 304 305 307
240 240 241 241 240 239 239 239 239 241 242 244 245 246 247 248 250 252 254 255 258 260 263 266 269 272 274 278 281 285 288 291 294 296 298 298 300 301 302 302 302 304
242 242 242 242 241 240 240 240 241 242 243 244 245 246 247 249 250 252 254 255 257 259 261 263 267 270 273 275 278 281 284 287 290 291 293 293 294 296 297 298 299 301
243 243 243 243 243 242 242 242 243 243 244 245 245 245 247 249 251 253 254 255 256 257 259 261 264 268 271 274 276 278 280 283 285 287 288 289 290 292 294 295 297 299
245 246 246 245 244 244 244 244 245 246 246 246 246 246 248 250 251 253 254 255 256 256 258 259 263 267 270 271 273 275 277 280 282 284 285 286 286 288 290 292 294 296
247 247 248 247 246 246 245 245 246 247 247 248 247 248 249 250 251 252 253 254 255 256 258 260 263 266 267 268 270 272 275 277 280 282 282 283 284 285 286 288 291 293
249 249 250 249 248 247 247 246 247 247 248 248 248 249 250 251 252 252 253 255 256 256 258 260 263 264 265 266 268 270 272 275 277 279 280 281 281 282 283 285 288 290
250 251 251 251 250 249 248 248 248 248 248 249 249 250 250 251 252 253 254 256 257 257 258 260 262 263 263 265 266 268 270 273 275 276 278 279 280 280 282 283 285 288
251 251 252 252 252 251 251 250 250 250 250 250 250 251 251 252 252 254 256 257 258 258 259 260 261 261 262 263 265 266 268 271 273 274 276 278 279 279 281 282 284 286
252 252 252 253 253 252 252 251 251 251 251 252 252 252 252 252 253 254 256 258 259 259 259 260 261 261 261 262 264 265 266 269 271 273 275 276 277 277 278 280 283 286
253 254 254 254 254 254 254 253 253 253 253 253 253 253 254 254 255 255 256 258 259 259 260 261 261 261 261 261 263 263 265 267 269 271 272 273 274 275 275 277 280 283
255 255 255 255 256 256 256 256 255 255 255 255 255 255 256 256 256 257 258 258 259 259 260 261 262 261 260 260 261 262 264 266 267 268 270 270 271 272 273 274 275 278
256 256 257 256 256 257 257 258 258 257 257 257 256 256 257 257 258 259 259 259 259 259 260 261 261 261 260 260 260 260 262 264 265 267 268 268 268 269 270 271 272 273
257 257 258 258 258 257 257 258 258 259 259 259 258 258 258 258 259 260 261 261 260 260 260 261 261 261 260 259 259 259 261 263 263 264 265 266 267 268 268 269 270 270
258 259 259 259 259 259 259 259 259 259 260 261 260 260 260 260 260 260 261 261 261 261 261 261 262 262 260 259 259 259 260 262 261 261 263 264 265 265 266 267 269 268
260 260 260 260 261 261 261 260 260 261 261 262 263 263 262 262 262 262 262 262 262 262 262 262 262 262 261 260 259 258 260 261 259 258 260 262 263 262 262 265 266 267